Location: Meriden
(44.0740°N, 93.3870°W)
Time: 05:37:41
(UTC-05:00)

Amateur Radio Satellites - All Passes

Search period start: 28 June 2017 05:07
Search period end: 29 June 2017 05:07
Location: Meriden, 44.0740°N, 93.3870°W

Satellite Date Start Highest point End Downlink Frequencies (MHz)
Time Altitude Azimuth
STARS 28 Jun 05:12:14 05:16:21 41° 70° (ENE) 05:20:30 437.465
MOZHAYETS 4 28 Jun 05:17:09 05:19:04 12° 271° (W) 05:20:59
ITAMSAT 1 28 Jun 05:31:48 05:36:48 45° 291° (WNW) 05:41:44 435.822/435.867
BEESAT 3 28 Jun 05:32:25 05:36:27 84° 52° (NE) 05:40:25 437.485
AO-85 28 Jun 05:37:03 05:41:04 54° 240° (WSW) 05:45:21 145.980
DOVE 4 28 Jun 05:39:36 05:42:36 16° 90° (E) 05:45:38 437.250
CUBESAT XI-V 28 Jun 06:04:00 06:07:25 20° 268° (W) 06:10:49 437.345
RS-15 28 Jun 06:04:33 06:16:50 87° 55° (NE) 06:28:28 29.354- 29.394
STRAND 1 28 Jun 06:10:46 06:13:11 13° 57° (ENE) 06:15:35 437.568
XW-2F 28 Jun 06:23:39 06:25:25 13° 91° (E) 06:27:11 145.980 - 146.000
KKS-1 28 Jun 06:29:00 06:31:33 15° 269° (W) 06:34:07 437.445
XW-2D 28 Jun 06:29:09 06:31:35 16° 92° (E) 06:34:02 145.860 - 145.880
O/OREOS (USA 219) 28 Jun 06:31:24 06:35:16 28° 57° (ENE) 06:39:06 437.305
XW-2B 28 Jun 06:37:56 06:40:46 20° 94° (E) 06:43:34 145.730 - 145.750
BEESAT 2 28 Jun 06:38:03 06:42:03 57° 239° (WSW) 06:45:59 435.950
LilacSat-2 28 Jun 06:40:33 06:43:37 23° 94° (E) 06:46:38 437.200
STARS 28 Jun 06:49:37 06:52:51 20° 267° (W) 06:56:07 437.465
XW-2C 28 Jun 06:53:10 06:56:32 30° 97° (E) 06:59:51 145.795 - 145.815
CUTE-I 28 Jun 06:55:53 07:00:41 32° 96° (E) 07:05:26 437.470
YUBILEINY 28 Jun 06:56:13 06:57:15 10° 48° (NE) 06:58:18 435.215
AO-7 28 Jun 06:58:33 07:05:12 27° 308° (NW) 07:11:51 .
KAITUO 1B 28 Jun 07:00:04 07:03:18 28° 96° (E) 07:06:30 145.475/437.950
DOVE 4 28 Jun 07:15:43 07:20:39 68° 286° (WNW) 07:25:48 437.250
Tancredo 1 28 Jun 07:24:23 07:27:04 29° 139° (SE) 07:29:45 437.200
NUDT-PHONESAT 28 Jun 07:31:11 07:34:53 68° 101° (E) 07:38:32 437.300
STRAND 1 28 Jun 07:46:26 07:51:35 89° 76° (ENE) 07:56:47 437.568
HO-68 28 Jun 07:53:53 08:00:17 34° 96° (E) 08:06:36 435.675
XW-2F 28 Jun 07:56:13 07:59:49 45° 287° (WNW) 08:03:22 145.980 - 146.000
XW-2D 28 Jun 08:02:27 08:05:55 35° 289° (WNW) 08:09:22 145.860 - 145.880
UWE-3 28 Jun 08:06:57 08:08:22 11° 87° (E) 08:09:45 435.000/436.395/437.385
SEEDS 28 Jun 08:08:32 08:11:51 23° 94° (E) 08:15:09 437.485
O/OREOS (USA 219) 28 Jun 08:10:41 08:14:40 32° 255° (WSW) 08:18:38 437.305
XW-2B 28 Jun 08:11:41 08:14:59 29° 290° (WNW) 08:18:15 145.730 - 145.750
LilacSat-2 28 Jun 08:14:40 08:17:51 26° 291° (WNW) 08:21:00 437.200
ISS 28 Jun 08:18:23 08:21:33 49° 143° (SE) 08:24:44 437.550
RS-15 28 Jun 08:18:28 08:27:44 28° 259° (W) 08:36:42 29.354- 29.394
FO-29 28 Jun 08:24:54 08:29:03 18° 52° (NE) 08:33:28 435.910
XW-2C 28 Jun 08:27:45 08:30:32 20° 293° (WNW) 08:33:18 145.795 - 145.815
CUTE 1.7 + AOD 2 28 Jun 08:31:10 08:35:21 64° 100° (E) 08:39:31 437.475
KAITUO 1B 28 Jun 08:34:20 08:37:10 21° 293° (WNW) 08:39:57 145.475/437.950
CUTE-I 28 Jun 08:35:50 08:40:44 37° 293° (WNW) 08:45:37 437.470
YUBILEINY 28 Jun 08:48:12 08:56:45 50° 74° (ENE) 09:05:11 435.215
AAUSAT CUBESAT 2 28 Jun 08:50:11 08:53:51 30° 96° (E) 08:57:28 437.432
AO-73 28 Jun 08:53:00 08:55:56 17° 91° (E) 08:58:49 145.935
Tancredo 1 28 Jun 08:59:41 09:02:33 39° 336° (NNW) 09:05:27 437.200
M-CUBED/EXP-1 PRIME 28 Jun 09:02:35 09:05:18 25° 64° (ENE) 09:08:02 437.505
TIGRISAT 28 Jun 09:06:14 09:09:00 16° 61° (ENE) 09:11:47 435.000
XW-2A 28 Jun 09:07:35 09:10:56 56° 286° (WNW) 09:14:15 145.665 - 145.685
CUBEBUG 2 28 Jun 09:13:27 09:18:11 88° 284° (WNW) 09:22:46 437.445
Oscar 11 28 Jun 09:16:02 09:19:29 23° 94° (E) 09:22:53 .
ZACube-1 28 Jun 09:28:55 09:33:12 45° 98° (E) 09:37:22 437.345
STRAND 1 28 Jun 09:29:44 09:31:27 12° 272° (W) 09:33:12 437.568
PRISM 28 Jun 09:38:03 09:41:36 30° 68° (ENE) 09:45:10 437.425
UWE-3 28 Jun 09:40:48 09:45:24 76° 285° (WNW) 09:49:50 435.000/436.395/437.385
HO-68 28 Jun 09:41:19 09:48:12 51° 294° (WNW) 09:55:03 435.675
SEEDS 28 Jun 09:43:52 09:47:34 32° 290° (WNW) 09:51:16 437.485
UNISAT 6 28 Jun 09:47:21 09:51:41 40° 70° (ENE) 09:56:05 437.425
DELFI C3 28 Jun 09:50:22 09:52:20 13° 91° (E) 09:54:17 145.870
ISS 28 Jun 09:55:07 09:58:09 33° 341° (NNW) 10:01:10 437.550
EO-88 28 Jun 10:04:22 10:05:38 11° 90° (E) 10:06:53 145.990 - 145.960
FO-29 28 Jun 10:06:39 10:12:53 84° 74° (ENE) 10:20:02 435.910
CUTE 1.7 + AOD 2 28 Jun 10:08:41 10:10:40 13° 298° (WNW) 10:12:39 437.475
AAUSAT CUBESAT 2 28 Jun 10:25:51 10:29:10 24° 293° (WNW) 10:32:28 437.432
AO-73 28 Jun 10:28:11 10:32:26 46° 288° (WNW) 10:36:34 145.935
Tancredo 1 28 Jun 10:36:24 10:38:42 19° 357° (N) 10:41:00 437.200
M-CUBED/EXP-1 PRIME 28 Jun 10:37:30 10:39:48 18° 260° (W) 10:42:07 437.505
PCSat 28 Jun 10:37:37 10:39:21 12° 102° (ESE) 10:41:06 145.827
TIGRISAT 28 Jun 10:40:32 10:45:08 65° 260° (W) 10:49:49 435.000
YUBILEINY 28 Jun 10:45:23 10:53:20 39° 275° (W) 11:01:13 435.215
Oscar 11 28 Jun 10:51:47 10:55:40 34° 291° (WNW) 10:59:32 .
CUBEBUG 2 28 Jun 10:52:29 10:54:00 11° 302° (WNW) 10:55:29 437.445
NANOSAT C BR1 28 Jun 10:55:54 10:57:51 13° 61° (ENE) 10:59:47 145.865
ZACube-1 28 Jun 11:06:00 11:09:08 19° 296° (WNW) 11:12:12 437.345
PRISM 28 Jun 11:13:38 11:16:54 23° 265° (W) 11:20:10 437.425
DELFI C3 28 Jun 11:23:33 11:27:23 50° 287° (WNW) 11:31:12 145.870
UNISAT 6 28 Jun 11:24:52 11:28:31 23° 267° (W) 11:32:14 437.425
HO-68 28 Jun 11:32:19 11:34:17 11° 315° (NW) 11:36:16 435.675
ISS 28 Jun 11:32:41 11:35:17 21° 1° (N) 11:37:54 437.550
POLYITAN 1 28 Jun 11:34:23 11:38:15 34° 69° (ENE) 11:42:08 437.675
EO-88 28 Jun 11:36:03 11:39:36 49° 287° (WNW) 11:43:06 145.990 - 145.960
BUGSAT 1 28 Jun 11:43:34 11:44:55 11° 60° (ENE) 11:46:17 437.445
QB50P2 28 Jun 11:45:07 11:49:13 48° 72° (ENE) 11:53:22 145.880/145.840
AIST 2D 28 Jun 11:46:05 11:49:39 84° 259° (W) 11:53:12 435.315
LO-87 28 Jun 11:48:26 11:51:38 28° 96° (E) 11:54:47 145.935 - 145.965
FO-29 28 Jun 11:54:57 11:58:59 17° 276° (W) 12:03:18 435.910
ESTCUBE 1 28 Jun 12:03:22 12:07:10 26° 95° (E) 12:10:56 437.505/2401.250
EO-79 28 Jun 12:08:18 12:12:32 79° 76° (ENE) 12:16:51 145.935-145.965
Tancredo 1 28 Jun 12:12:16 12:14:56 27° 16° (NNE) 12:17:36 437.200
PCSat 28 Jun 12:16:26 12:21:51 82° 119° (ESE) 12:27:19 145.827
DUCHIFAT 1 28 Jun 12:18:24 12:22:38 82° 74° (ENE) 12:26:55 145.980
NANOSAT C BR1 28 Jun 12:28:46 12:32:59 68° 259° (WSW) 12:37:16 145.865
Gurwin Techsat 1B 28 Jun 12:31:17 12:33:25 12° 56° (NE) 12:35:34 435.225
Oscar 19 28 Jun 12:49:06 12:53:18 26° 64° (ENE) 12:57:30 437.125/150
ISS 28 Jun 13:09:18 13:12:24 37° 21° (NNE) 13:15:30 437.550
POLYITAN 1 28 Jun 13:10:41 13:14:05 23° 266° (W) 13:17:31 437.675
BUGSAT 1 28 Jun 13:15:29 13:19:38 77° 258° (WSW) 13:23:52 437.445
LO-87 28 Jun 13:22:09 13:24:54 20° 293° (WNW) 13:27:38 145.935 - 145.965
QB50P2 28 Jun 13:22:36 13:25:17 16° 269° (W) 13:27:59 145.880/145.840
SPROUT 28 Jun 13:23:22 13:27:34 48° 99° (E) 13:31:43 437.525
VELOX 1 28 Jun 13:26:54 13:31:12 47° 100° (E) 13:35:29 145.980
DX 1 28 Jun 13:36:38 13:39:53 20° 93° (E) 13:43:07 434.975-435.025
ESTCUBE 1 28 Jun 13:39:59 13:43:58 32° 292° (WNW) 13:47:55 437.505/2401.250
UKube-1 28 Jun 13:47:17 13:50:11 17° 92° (E) 13:53:05 .
Tancredo 1 28 Jun 13:47:41 13:50:42 63° 215° (SW) 13:53:42 437.200
PCSat 28 Jun 14:01:56 14:05:55 20° 320° (NW) 14:09:56 145.827
Gurwin Techsat 1B 28 Jun 14:07:11 14:12:29 80° 75° (ENE) 14:17:50 435.225
50 SAT 28 Jun 14:14:17 14:17:43 83° 103° (ESE) 14:21:08 437.505
AO-7 28 Jun 14:14:28 14:21:24 31° 54° (NE) 14:28:22 .
SO-50 28 Jun 14:17:22 14:21:54 70° 122° (ESE) 14:26:25 436.795
Oscar 19 28 Jun 14:27:30 14:32:23 43° 261° (W) 14:37:18 437.125/150
ISS 28 Jun 14:45:48 14:48:54 39° 219° (SW) 14:52:00 437.550
SPROUT 28 Jun 15:00:14 15:03:05 17° 297° (WNW) 15:05:56 437.525
VELOX 1 28 Jun 15:04:11 15:07:18 19° 297° (WNW) 15:10:24 145.980
ITAMSAT 1 28 Jun 15:11:59 15:16:54 44° 69° (ENE) 15:21:51 435.822/435.867
DX 1 28 Jun 15:12:06 15:16:13 40° 290° (WNW) 15:20:18 434.975-435.025
UKube-1 28 Jun 15:22:18 15:26:26 45° 289° (WNW) 15:30:34 .
MOZHAYETS 4 28 Jun 15:31:39 15:34:18 15° 90° (E) 15:36:56
Gurwin Techsat 1B 28 Jun 15:50:24 15:53:03 14° 271° (W) 15:55:44 435.225
SO-50 28 Jun 15:59:29 16:02:49 20° 322° (NW) 16:06:09 436.795
AO-7 28 Jun 16:05:14 16:13:32 71° 254° (WSW) 16:21:55 .
ITUPSAT 1 28 Jun 16:21:20 16:26:08 69° 102° (ESE) 16:30:53 437.325
BEESAT 28 Jun 16:29:01 16:33:50 83° 103° (ESE) 16:38:36 436.000
DOVE 4 28 Jun 16:47:26 16:49:54 15° 62° (ENE) 16:52:25 437.250
ITAMSAT 1 28 Jun 16:52:16 16:56:32 25° 266° (W) 17:00:49 435.822/435.867
MOZHAYETS 4 28 Jun 17:07:19 17:11:51 58° 287° (WNW) 17:16:18
XW-2D 28 Jun 17:13:11 17:14:25 11° 62° (ENE) 17:15:40 145.860 - 145.880
XW-2B 28 Jun 17:21:30 17:23:27 14° 64° (ENE) 17:25:23 145.730 - 145.750
LilacSat-2 28 Jun 17:24:28 17:26:50 16° 65° (ENE) 17:29:11 437.200
XW-2C 28 Jun 17:36:10 17:38:59 20° 67° (ENE) 17:41:48 145.795 - 145.815
KAITUO 1B 28 Jun 17:41:58 17:44:32 18° 66° (ENE) 17:47:06 145.475/437.950
CUBESAT XI-V 28 Jun 17:57:16 18:01:54 90° 145° (SE) 18:06:30 437.345
ITUPSAT 1 28 Jun 18:00:35 18:03:24 16° 300° (WNW) 18:06:12 437.325
AO-7 28 Jun 18:03:57 18:07:45 14° 274° (W) 18:11:35 .
BEESAT 28 Jun 18:08:43 18:10:55 13° 302° (WNW) 18:13:07 436.000
NUDT-PHONESAT 28 Jun 18:11:34 18:15:01 36° 72° (ENE) 18:18:31 437.300
KKS-1 28 Jun 18:15:53 18:20:24 89° 289° (WNW) 18:24:54 437.445
CUTE-I 28 Jun 18:18:57 18:24:11 59° 71° (ENE) 18:29:27 437.470
DOVE 4 28 Jun 18:23:01 18:27:06 54° 260° (W) 18:31:24 437.250
HO-68 28 Jun 18:24:26 18:30:31 31° 59° (ENE) 18:36:35 435.675
STARS 28 Jun 18:35:48 18:40:15 64° 102° (ESE) 18:44:38 437.465
XW-2F 28 Jun 18:37:45 18:41:34 83° 255° (WSW) 18:45:24 145.980 - 146.000
CUBEBUG 2 28 Jun 18:39:20 18:40:56 12° 58° (ENE) 18:42:33 437.445
XW-2D 28 Jun 18:44:17 18:48:05 63° 259° (W) 18:51:54 145.860 - 145.880
XW-2B 28 Jun 18:53:29 18:57:14 50° 261° (W) 19:00:58 145.730 - 145.750
LilacSat-2 28 Jun 18:57:05 19:00:46 43° 261° (W) 19:04:28 437.200
SEEDS 28 Jun 19:01:48 19:04:51 20° 66° (ENE) 19:07:55 437.485
UWE-3 28 Jun 19:05:07 19:07:10 13° 60° (ENE) 19:09:15 435.000/436.395/437.385
XW-2C 28 Jun 19:09:30 19:12:58 32° 263° (W) 19:16:27 145.795 - 145.815
KAITUO 1B 28 Jun 19:14:47 19:18:17 35° 263° (W) 19:21:47 145.475/437.950
PCSat 28 Jun 19:20:24 19:24:11 19° 39° (NE) 19:27:57 145.827
CUTE 1.7 + AOD 2 28 Jun 19:24:48 19:28:55 53° 73° (ENE) 19:33:03 437.475
CUBESAT XI-V 28 Jun 19:37:08 19:38:32 11° 301° (WNW) 19:39:57 437.345
XW-2A 28 Jun 19:39:41 19:43:03 54° 74° (ENE) 19:46:26 145.665 - 145.685
AAUSAT CUBESAT 2 28 Jun 19:41:45 19:45:06 24° 68° (ENE) 19:48:27 437.432
NUDT-PHONESAT 28 Jun 19:46:39 19:49:04 16° 268° (W) 19:51:29 437.300
AO-73 28 Jun 19:49:43 19:52:49 18° 64° (ENE) 19:55:55 145.935
AO-85 28 Jun 19:53:16 19:56:48 29° 117° (ESE) 20:00:17 145.980
KKS-1 28 Jun 19:55:04 19:56:14 11° 302° (WNW) 19:57:24 437.445
STRAND 1 28 Jun 19:55:55 20:00:17 27° 95° (E) 20:04:36 437.568
CUTE-I 28 Jun 20:00:53 20:04:38 19° 269° (W) 20:08:24 437.470
NO-84 28 Jun 20:09:53 20:11:48 13° 123° (ESE) 20:13:47 435.350 FM
HO-68 28 Jun 20:10:44 20:17:49 60° 258° (WSW) 20:24:57 435.675
CUBEBUG 2 28 Jun 20:12:07 20:16:46 88° 68° (ENE) 20:21:32 437.445
Oscar 11 28 Jun 20:12:17 20:15:38 22° 66° (ENE) 20:18:59 .
STARS 28 Jun 20:13:36 20:16:04 15° 299° (WNW) 20:18:31 437.465
ZACube-1 28 Jun 20:25:26 20:29:45 43° 71° (ENE) 20:34:07 437.345
RS-15 28 Jun 20:28:26 20:39:50 50° 111° (ESE) 20:51:27 29.354- 29.394
BEESAT 2 28 Jun 20:31:40 20:34:11 16° 111° (ESE) 20:36:44 435.950
SEEDS 28 Jun 20:36:22 20:40:17 38° 262° (W) 20:44:14 437.485
UWE-3 28 Jun 20:38:18 20:42:55 82° 256° (WSW) 20:47:39 435.000/436.395/437.385
DELFI C3 28 Jun 20:39:10 20:39:29 10° 61° (ENE) 20:39:47 145.870
O/OREOS (USA 219) 28 Jun 20:45:38 20:49:12 23° 103° (ESE) 20:52:46 437.305
BEESAT 3 28 Jun 21:00:10 21:04:09 89° 306° (NW) 21:08:13 437.485
CUTE 1.7 + AOD 2 28 Jun 21:02:44 21:05:04 14° 270° (W) 21:07:25 437.475
PCSat 28 Jun 21:02:54 21:08:22 88° 59° (ENE) 21:13:48 145.827
SO-50 28 Jun 21:07:42 21:10:41 17° 36° (NE) 21:13:39 436.795
FO-29 28 Jun 21:16:23 21:20:22 14° 83° (E) 21:24:18 435.910
AAUSAT CUBESAT 2 28 Jun 21:16:50 21:20:26 29° 264° (W) 21:24:04 437.432
AO-73 28 Jun 21:24:11 21:28:38 53° 261° (W) 21:33:08 145.935
AO-85 28 Jun 21:33:39 21:37:09 28° 314° (NW) 21:40:37 145.980
STRAND 1 28 Jun 21:34:45 21:39:34 40° 292° (WNW) 21:44:19 437.568
NO-84 28 Jun 21:44:51 21:48:43 87° 321° (NW) 21:52:56 435.350 FM
Oscar 11 28 Jun 21:47:31 21:51:33 37° 263° (W) 21:55:36 .
YUBILEINY 28 Jun 21:50:39 21:59:05 54° 90° (E) 22:07:35 435.215
CUBEBUG 2 28 Jun 21:53:30 21:54:02 10° 274° (W) 21:54:35 437.445
ZACube-1 28 Jun 22:02:48 22:06:12 21° 268° (W) 22:09:39 437.345
BEESAT 2 28 Jun 22:07:38 22:11:32 51° 309° (NW) 22:15:31 435.950
DELFI C3 28 Jun 22:09:45 22:13:38 75° 257° (WSW) 22:17:34 145.870
M-CUBED/EXP-1 PRIME 28 Jun 22:12:55 22:15:31 17° 100° (E) 22:18:14 437.505
EO-88 28 Jun 22:14:32 22:18:13 83° 76° (ENE) 22:21:54 145.990 - 145.960
O/OREOS (USA 219) 28 Jun 22:24:09 22:28:24 38° 300° (WNW) 22:32:38 437.305
LO-87 28 Jun 22:26:47 22:28:55 15° 65° (ENE) 22:31:02 145.935 - 145.965
TIGRISAT 28 Jun 22:31:09 22:34:55 24° 93° (E) 22:38:37 435.000
BEESAT 3 28 Jun 22:40:09 22:42:20 14° 324° (NW) 22:44:33 437.485
RS-15 28 Jun 22:40:11 22:52:14 60° 315° (NW) 23:04:28 29.354- 29.394
SO-50 28 Jun 22:47:12 22:51:45 88° 244° (WSW) 22:56:19 436.795
PCSat 28 Jun 22:48:25 22:50:58 13° 257° (WSW) 22:53:31 145.827
PRISM 28 Jun 22:52:21 22:56:14 39° 99° (E) 23:00:06 437.425
FO-29 28 Jun 22:58:43 23:06:37 72° 102° (ESE) 23:14:18 435.910
ESTCUBE 1 28 Jun 23:04:10 23:08:03 29° 68° (ENE) 23:11:56 437.505/2401.250
UNISAT 6 28 Jun 23:13:47 23:18:28 72° 103° (ESE) 23:22:58 437.425
NO-84 28 Jun 23:23:23 23:26:49 25° 342° (NNW) 23:30:25 435.350 FM
M-CUBED/EXP-1 PRIME 28 Jun 23:46:29 23:50:03 41° 293° (WNW) 23:53:54 437.505
YUBILEINY 28 Jun 23:48:14 23:56:12 37° 291° (WNW) 00:04:15 435.215
EO-79 28 Jun 23:53:36 23:55:05 12° 89° (E) 23:56:33 145.935-145.965
LO-87 28 Jun 23:58:43 00:02:02 37° 262° (W) 00:05:24 145.935 - 145.965
DUCHIFAT 1 29 Jun 00:02:57 00:04:30 12° 89° (E) 00:06:02 145.980
TIGRISAT 29 Jun 00:07:26 00:11:42 36° 291° (WNW) 00:15:50 435.000
NANOSAT C BR1 29 Jun 00:12:29 00:15:19 17° 92° (E) 00:18:07 145.865
SPROUT 29 Jun 00:17:46 00:21:49 44° 71° (ENE) 00:25:55 437.525
VELOX 1 29 Jun 00:25:15 00:29:28 49° 71° (ENE) 00:33:44 145.980
PRISM 29 Jun 00:28:17 00:31:15 19° 295° (WNW) 00:34:12 437.425
SO-50 29 Jun 00:30:40 00:31:29 10° 253° (WSW) 00:32:18 436.795
DX 1 29 Jun 00:33:36 00:36:54 22° 65° (ENE) 00:40:13 434.975-435.025
ESTCUBE 1 29 Jun 00:40:54 00:44:48 29° 264° (W) 00:48:43 437.505/2401.250
AIST 2D 29 Jun 00:42:44 00:46:15 83° 283° (WNW) 00:49:43 435.315
UKube-1 29 Jun 00:43:13 00:46:14 19° 63° (ENE) 00:49:15 .
FO-29 29 Jun 00:44:32 00:50:57 29° 301° (WNW) 00:57:19 435.910
50 SAT 29 Jun 00:47:21 00:50:26 34° 71° (ENE) 00:53:32 437.505
UNISAT 6 29 Jun 00:52:07 00:54:32 14° 300° (WNW) 00:56:56 437.425
POLYITAN 1 29 Jun 00:52:51 00:57:03 51° 100° (E) 01:01:11 437.675
BUGSAT 1 29 Jun 00:57:07 00:59:24 14° 90° (E) 01:01:40 437.445
RS-15 29 Jun 00:57:40 01:08:06 30° 346° (NNW) 01:18:27 29.354- 29.394
NO-84 29 Jun 01:02:29 01:05:33 19° 3° (N) 01:08:42 435.350 FM
QB50P2 29 Jun 01:03:52 01:08:10 75° 102° (ESE) 01:12:25 145.880/145.840
EO-79 29 Jun 01:27:02 01:31:17 68° 286° (WNW) 01:35:31 145.935-145.965
DUCHIFAT 1 29 Jun 01:36:22 01:40:37 66° 286° (WNW) 01:44:48 145.980
NANOSAT C BR1 29 Jun 01:47:11 01:51:16 45° 289° (WNW) 01:55:17 145.865
ITUPSAT 1 29 Jun 01:54:50 01:56:54 13° 58° (ENE) 01:58:59 437.325
SPROUT 29 Jun 01:55:02 01:57:56 18° 268° (W) 02:00:52 437.525
BEESAT 29 Jun 02:01:31 02:04:10 15° 59° (ENE) 02:06:50 436.000
VELOX 1 29 Jun 02:03:26 02:06:12 16° 268° (W) 02:09:00 145.980
DX 1 29 Jun 02:08:50 02:12:51 38° 262° (W) 02:16:55 434.975-435.025
UKube-1 29 Jun 02:17:49 02:21:55 44° 260° (W) 02:26:04 .
50 SAT 29 Jun 02:21:35 02:23:22 14° 268° (W) 02:25:09 437.505
Gurwin Techsat 1B 29 Jun 02:22:20 02:26:53 28° 95° (E) 02:31:23 435.225
POLYITAN 1 29 Jun 02:29:43 02:32:26 17° 297° (WNW) 02:35:07 437.675
BUGSAT 1 29 Jun 02:30:55 02:35:06 55° 287° (WNW) 02:39:13 437.445
MOZHAYETS 4 29 Jun 02:34:48 02:37:59 19° 63° (ENE) 02:41:11
Oscar 19 29 Jun 02:37:06 02:42:11 58° 101° (E) 02:47:13 437.125/150
NO-84 29 Jun 02:40:15 02:44:11 32° 24° (NNE) 02:48:08 435.350 FM
QB50P2 29 Jun 02:41:41 02:43:21 12° 300° (WNW) 02:45:01 145.880/145.840
RS-15 29 Jun 03:14:49 03:25:35 33° 21° (NNE) 03:35:59 29.354- 29.394
ITAMSAT 1 29 Jun 03:24:59 03:27:26 13° 89° (E) 03:29:52 435.822/435.867
CUBESAT XI-V 29 Jun 03:27:30 03:29:31 13° 60° (ENE) 03:31:31 437.345
ITUPSAT 1 29 Jun 03:29:12 03:34:01 87° 258° (WSW) 03:38:52 437.325
BEESAT 29 Jun 03:36:34 03:41:21 73° 257° (WSW) 03:46:10 436.000
BEESAT 3 29 Jun 03:39:23 03:41:24 13° 36° (NE) 03:43:26 437.485
KKS-1 29 Jun 03:41:51 03:43:31 12° 59° (ENE) 03:45:12 437.445
Gurwin Techsat 1B 29 Jun 04:01:57 04:06:56 41° 292° (WNW) 04:11:53 435.225
AO-7 29 Jun 04:05:24 04:13:01 37° 97° (E) 04:20:33 .
MOZHAYETS 4 29 Jun 04:10:14 04:14:45 52° 260° (W) 04:19:18
Oscar 19 29 Jun 04:17:25 04:21:04 20° 299° (WNW) 04:24:41 437.125/150
NO-84 29 Jun 04:17:43 04:22:04 64° 223° (SW) 04:26:20 435.350 FM
AO-85 29 Jun 04:22:00 04:25:53 42° 50° (NE) 04:30:00 145.980
BEESAT 2 29 Jun 04:46:43 04:49:47 20° 41° (NE) 04:52:50 435.950
